BREEZE-M DEB (TANK), 40260

Orbit data source: Space-Track

BREEZE-M DEB (TANK), 40260 is space debris in HEO originally from a launch on Sat, 27 Sep 2014 UTC launched from the Tyuratam Missile And Space Complex (TTMTR). Debris objects in space refer to the collection of defunct objects orbiting the Earth. Examples of debris include non-operational satellites, rocket bodies, and fragments generated from explosions, collisions, or faulty payload assembly.

Loading next visibility...
Identifier
40260, 2014-058C
Orbit
HEO
Country
Flag of CISCIS
Related business
Manufacturer
Khrunichev
Mission
Spacecraft
Bus & Motor
BRIZ TANK, Unknown motor
Mass
~1,000 kg wet, 1,000 kg dry
Launch date (UTC)
2014-09-27 (12 years ago)
Launch vehicle
Unknown
Launch site
Tyuratam Missile And Space Complex (TTMTR)
Object type
Payload
Rocket body
Debris
Shape & HBR
Torus, 2.0 m
Radar Cross Section
8.218 m², Large (>1 m²)

Expand to show TLE details & history
Last TLE update: 1 day ago

TLE from 1 day ago
0 BREEZE-M DEB (TANK)
1 40260U 14058C   26262.64611753 -.00000127  00000-0 -14896-2 0  9993
2 40260  45.0510 274.7179 7006592  85.2437 344.7810  2.27184893 98686
Epoch: 2026-09-19T15:30Z
TLE epoch observation values (Epoch: 2026-09-19T15:30:24.554Z)
Latitude
-0.00007°
Longitude
43.58669°
Altitude
5,343.941 km
Speed
7.191 km/s
True Right ascension
18h 18m 57s
True Declination
0° 00' 00"
Sunlit
Object was in daylight at epoch
Visualization orbit readout
Latitude
Unknown
Longitude
Unknown
Altitude
Unknown
Speed
Unknown
Apparent Right ascension
Unknown
Apparent Declination
Unknown
Sunlit
N/A
Visualization observer readout
Local Sidereal Time
13:43:11
Azimuth
Unknown
Elevation
Unknown
Doppler factor
Unknown
Orbital elements
Apogee altitude
35,192.66 km
Perigee altitude
938.929 km
Semi-major axis
24,443.932 km
Eccentricity
0.70066
Inclination
45.051°
RAAN
274.7179°
Arg. of periapsis
85.2437°
True anomaly
274.83411°
Mean anomaly
344.781°
Eccentric anomaly
317.83099°
Mean motion
0.56792 °/min
Orbital period
633.89 mins
BSTAR
-0.0014896
Loading maneuver chart data...
Computing Atmospheric mass density...
Loading historical data...
Loading historical data...
Loading historical data...
Loading historical data...
Loading historical data...
Loading historical data...
Loading historical data...
Other satellites on launch #58 in the year 2014 (2014-09-27 UTC)

Documentation

Showing up to 5 results
|